Lamar, CO

6:39 PM MST on November 15, 2019 (GMT -0700)
Lamar Municipal

Weather History for KLAA - September, 2019

Change the Weather History Date:

Friday, September 6, 2019

  Actual Average Record
Temperature  
Mean Temperature 74 °F 70 °F  
Max Temperature 94 °F 86 °F 105 °F (1931)
Min Temperature 53 °F 55 °F 41 °F (1956)
Degree Days  
Heating Degree Days 0 1  
Month to date heating degree days 0 5  
Since 1 July heating degree days 0 10  
Cooling Degree Days 9 6  
Month to date cooling degree days 87 40  
Year to date cooling degree days 1189 1029  
Growing Degree Days 25 (Base 50)    
Moisture  
Dew Point 58 °F    
Average Humidity 58    
Maximum Humidity 93    
Minimum Humidity 23    
Precipitation  
Precipitation 0.00 in 0.05 in 0.80 in (1948)
Month to date precipitation 0.00 0.31  
Year to date precipitation 7.23 12.68  
Sea Level Pressure  
Sea Level Pressure 30.03 in    
Wind  
Wind Speed 10 mph (ENE)    
Max Wind Speed 18 mph    
Max Gust Speed 26 mph    
Visibility 10 miles    
Events      
T = Trace of Precipitation, MM = Missing Value Source: NWS Daily Summary

Daily Weather History Graph

Daily Weather History Graph

Search for Another Location

Airport or City:

Astronomy

Sep. 06, 2019 Rise Set
Actual Time 6:24 AM MDT 7:12 PM MDT
Civil Twilight 5:57 AM MDT 7:39 PM MDT
Nautical Twilight 5:26 AM MDT 8:11 PM MDT
Astronomical Twilight 4:53 AM MDT 8:43 PM MDT
Moon 2:28 PM MDT (9/6) No Moon Set
Length of Visible Light 13h 41m
Length of Day
12h 48m
First Quarter, 56% of the Moon is Illuminated
Sep 6
First Quarter
Sep 13
Full
Sep 21
Last Quarter
Sep 28
New
Oct 5
First Quarter

Hourly Weather History & Observations

Time (MDT) Temp. Heat Index Dew Point Humidity Pressure Visibility Wind Dir Wind Speed Gust Speed Precip Events Conditions
12:53 AM 66.0 °F - 46.9 °F 50% 29.92 in 10.0 mi Calm Calm - N/A   Clear
1:53 AM 61.0 °F - 48.0 °F 62% 29.94 in 10.0 mi North 5.8 mph - N/A   Clear
2:53 AM 60.1 °F - 46.9 °F 62% 29.93 in 10.0 mi East 5.8 mph - N/A   Clear
3:53 AM 57.0 °F - 46.0 °F 67% 29.95 in 10.0 mi Calm Calm - N/A   Clear
4:53 AM 57.0 °F - 46.9 °F 69% 29.96 in 10.0 mi Calm Calm - N/A   Clear
5:53 AM 61.0 °F - 55.9 °F 83% 29.98 in 10.0 mi NE 5.8 mph - N/A   Clear
6:53 AM 63.0 °F - 60.1 °F 90% 30.02 in 10.0 mi NE 6.9 mph - N/A   Clear
7:53 AM 69.1 °F - 63.0 °F 81% 30.05 in 10.0 mi ENE 4.6 mph - N/A   Partly Cloudy
8:39 AM 73.9 °F - 63.0 °F 68% 30.21 in 10.0 mi ENE 10.4 mph 18.4 mph N/A   Mostly Cloudy
8:53 AM 75.0 °F - 63.0 °F 66% 30.06 in 10.0 mi ENE 15.0 mph 19.6 mph N/A   Mostly Cloudy
9:02 AM 73.9 °F - 63.0 °F 68% 30.22 in 10.0 mi ENE 13.8 mph - N/A   Scattered Clouds
9:51 AM 77.0 °F - 62.6 °F 61% 30.23 in 10.0 mi NE 10.4 mph - N/A   Mostly Cloudy
9:53 AM 77.0 °F - 63.0 °F 62% 30.09 in 10.0 mi NE 13.8 mph - N/A   Mostly Cloudy
10:18 AM 78.1 °F - 63.0 °F 60% 30.23 in 10.0 mi NE 13.8 mph 19.6 mph N/A   Scattered Clouds
10:53 AM 81.0 °F 82.2 °F 63.0 °F 54% 30.08 in 10.0 mi NE 8.1 mph - N/A   Mostly Cloudy
11:05 AM 80.1 °F 81.5 °F 63.0 °F 56% 30.23 in 10.0 mi ENE 12.7 mph 23.0 mph N/A   Scattered Clouds
11:53 AM 82.9 °F 83.7 °F 62.1 °F 49% 30.06 in 10.0 mi NE 13.8 mph 20.7 mph N/A   Partly Cloudy
12:53 PM 84.0 °F 84.5 °F 62.1 °F 47% 30.06 in 10.0 mi East 12.7 mph - N/A   Clear
1:53 PM 88.0 °F 88.4 °F 62.1 °F 42% 30.03 in 10.0 mi ENE 13.8 mph - N/A   Clear
2:53 PM 90.0 °F 90.0 °F 61.0 °F 38% 30.00 in 10.0 mi East 10.4 mph 20.7 mph N/A   Clear
3:53 PM 91.0 °F 90.5 °F 60.1 °F 35% 29.96 in 10.0 mi ESE 15.0 mph 21.9 mph N/A   Clear
4:53 PM 93.9 °F - 52.0 °F 24% 29.93 in 10.0 mi SSE 10.4 mph 20.7 mph N/A   Clear
5:53 PM 91.9 °F - 48.9 °F 23% 29.93 in 10.0 mi SE 11.5 mph - N/A   Clear
6:53 PM 86.0 °F - 50.0 °F 29% 29.95 in 10.0 mi ESE 9.2 mph - N/A   Clear
7:53 PM 82.0 °F 81.6 °F 55.9 °F 41% 29.95 in 10.0 mi East 11.5 mph - N/A   Clear
8:53 PM 80.1 °F 80.4 °F 57.0 °F 45% 29.96 in 10.0 mi ESE 12.7 mph - N/A   Clear
9:53 PM 75.9 °F - 57.0 °F 52% 29.97 in 10.0 mi East 10.4 mph - N/A   Clear
10:53 PM 73.9 °F - 61.0 °F 64% 29.96 in 10.0 mi East 12.7 mph - N/A   Clear
11:53 PM 73.0 °F - 64.0 °F 73% 29.93 in 10.0 mi ESE 17.3 mph - N/A   Clear